Location: Unspecified
(0.0000°N, 0.0000°E)
Time: 09:28:41
(UTC+00:00)

ISS - Pass Details

Date: 05 November 2025
Orbit: 415 x 421 km, 51.6° (Epoch: 12 November)

Event Time Altitude Azimuth Distance (km) Brightness Sun altitude
Rises 18:31:43 0° 213° (SSW) 2,351 0.9 -11.6°
Reaches altitude 10° 18:33:49 10° 212° (SSW) 1,485 -0.2 -12.1°
Maximum altitude 18:37:08 78° 126° (SE) 425 -3.9 -12.9°
Enters shadow 18:39:19 20° 41° (NE) 1,022 -2.3 -13.4°
